M I D A S
Marine Information and Data Acquisition System
Tripno 517 of the Zeeleeuw from 2003-06-17 06:38:05 to 2003-06-17 13:34:09
Back to CruiseResearch ActivitiesStationsMapUnderway DataData graphs

EquipmentUnitsComments
TimeDGPSUTC
LatitudeDGPSDM.mWGS84
LongitudeDGPSDM.mWGS84
SpeedMeteo Stationm/sRelative wind speed
DirectionMeteo StationdegRelative wind direction
TemperatureMeteo Stationdeg CelciusAir temperature
PressureMeteo StationPaAtmospheric pressure
HumidityMeteo Station%Relative humidity
Missing or incorrect values are displayed as -999
Metereological data collected by the RV Zeeleeuw from 2003-06-17 06:38:05 to 2003-06-17 13:34:09
                                                                                    Next 1000 lines
Time Latitude Longitude Speed Direction Temperature Pressure Humidity
2003-06-17 06:38:13 51°13.61 2°56.09 4.2 329 20.1 101130 59
2003-06-17 06:38:17 51°13.61 2°56.09 3.5 5 20.1 101130 59
2003-06-17 06:38:25 51°13.61 2°56.09 4.1 4 20.1 101130 59
2003-06-17 06:38:29 51°13.61 2°56.09 5 10 20.1 101130 59
2003-06-17 06:38:33 51°13.61 2°56.09 6.2 4 20.1 101130 59
2003-06-17 06:38:39 51°13.61 2°56.09 4.4   20.1 101130 59
2003-06-17 06:38:45 51°13.61 2°56.09 4.6 357 20.1 101130 58
2003-06-17 06:38:49 51°13.61 2°56.09 5.5 9 20.1 101130 58
2003-06-17 06:38:53 51°13.61 2°56.09 4.5 359 20.1 101130 58
2003-06-17 06:38:57 51°13.61 2°56.09 4.2 18 20.1 101130 58
2003-06-17 06:39:05 51°13.61 2°56.09 5.2 1 20.2 101130 58
2003-06-17 06:39:09 51°13.61 2°56.09 4.7 5 20.2 101130 58
2003-06-17 06:39:13 51°13.61 2°56.09 3.8 4 20.1 101130 58
2003-06-17 06:39:19 51°13.61 2°56.09 2.8 359 20.1 101130 58
2003-06-17 06:39:25 51°13.61 2°56.09 2.8 10 20.1 101130 58
2003-06-17 06:39:29 51°13.61 2°56.09 2.6 352 20.1 101130 58
2003-06-17 06:39:33 51°13.61 2°56.09 3 5 20.1 101130 58
2003-06-17 06:39:37 51°13.61 2°56.09 2.9 1 20.1 101130 58
2003-06-17 06:39:43 51°13.61 2°56.09 4.9 21 20.1 101130 59
2003-06-17 06:39:49 51°13.61 2°56.09 4.1 10 20.1 101130 59
2003-06-17 06:39:53 51°13.61 2°56.09 5.9 3 20 101130 59
2003-06-17 06:39:59 51°13.61 2°56.09 5.3 9 20 101130 59
2003-06-17 06:40:05 51°13.61 2°56.09 4.9 6 20 101140 59
2003-06-17 06:40:09 51°13.61 2°56.09 4.3 10 20 101140 59
2003-06-17 06:40:13 51°13.61 2°56.09 4.1 18 20 101130 58
2003-06-17 06:40:17 51°13.61 2°56.09 3.9 5 20 101130 58
2003-06-17 06:40:25 51°13.61 2°56.09 3.5 26 20 101130 58
2003-06-17 06:40:29 51°13.61 2°56.09 4.1 16 20 101130 58
2003-06-17 06:40:33 51°13.61 2°56.09 3.8 25 20 101130 58
2003-06-17 06:40:39 51°13.61 2°56.09 4.9 20 20 101130 58
2003-06-17 06:40:45 51°13.61 2°56.08 4.9 24 20 101130 58
2003-06-17 06:40:49 51°13.61 2°56.08 4.2 12 20 101130 58
2003-06-17 06:40:53 51°13.61 2°56.08 3.6 9 20 101130 58
2003-06-17 06:40:57 51°13.61 2°56.08 2.2 335 20 101130 58
2003-06-17 06:41:05 51°13.61 2°56.07 3.7 19 20 101130 57
2003-06-17 06:41:09 51°13.61 2°56.07 4.3 18 20 101130 57
2003-06-17 06:41:15 51°13.61 2°56.07 3.4   20 101130 58
2003-06-17 06:41:21 51°13.61 2°56.06 2.6 341 20 101130 58
2003-06-17 06:41:25 51°13.61 2°56.06 3.1 4 20 101140 58
2003-06-17 06:41:31 51°13.61 2°56.06 3.2 9 20 101140 58
2003-06-17 06:41:37 51°13.61 2°56.05 2.8 15 19.9 101130 58
2003-06-17 06:41:41 51°13.61 2°56.05 3.4 356 19.9 101130 58
2003-06-17 06:41:47 51°13.61 2°56.04 2.9 16 19.9 101130 58
2003-06-17 06:41:53 51°13.62 2°56.03 2.6 22 19.9 101130 58
2003-06-17 06:41:57 51°13.62 2°56.03 2.2 53 19.9 101140 58
2003-06-17 06:42:03 51°13.62 2°56.02 2.8 49 19.9 101140 58
2003-06-17 06:42:07 51°13.62 2°56.01 3.1 34 19.9 101130 58
2003-06-17 06:42:13 51°13.62 2°56.01 2.3 41 19.9 101130 58
2003-06-17 06:42:19 51°13.62 2°56 2.2 22 19.9 101140 58
2003-06-17 06:42:23 51°13.62 2°55.99 1.4 35 19.9 101140 58
2003-06-17 06:42:29 51°13.62 2°55.98 1.1 40 19.9 101130 58
2003-06-17 06:42:33 51°13.62 2°55.97 1.6 26 19.9 101130 58
2003-06-17 06:42:39 51°13.63 2°55.97 2 22 19.9 101140 58
2003-06-17 06:42:43 51°13.63 2°55.96 1.8 28 19.9 101140 58
2003-06-17 06:42:49 51°13.63 2°55.95 1.7 26 19.9 101130 58
2003-06-17 06:42:53 51°13.63 2°55.94 1.5 21 19.9 101130 58
2003-06-17 06:42:59 51°13.64 2°55.93 1.5 6 19.9 101140 59
2003-06-17 06:43:03 51°13.64 2°55.93 1.6 6 19.9 101140 59
2003-06-17 06:43:09 51°13.64 2°55.92 2 11 19.9 101130 59
2003-06-17 06:43:13 51°13.64 2°55.91 2.3 13 19.9 101130 59
2003-06-17 06:43:19 51°13.65 2°55.9 2.4 16 19.9 101130 59
2003-06-17 06:43:23 51°13.65 2°55.9 2.4 11 19.9 101130 59
2003-06-17 06:43:29 51°13.65 2°55.89 2.2 4 19.9 101130 58
2003-06-17 06:43:33 51°13.65 2°55.88 2.5 8 19.9 101130 58
2003-06-17 06:43:39 51°13.66 2°55.87 2.3 17 19.9 101130 58
2003-06-17 06:43:43 51°13.66 2°55.87 2.5 18 19.9 101130 58
2003-06-17 06:43:49 51°13.66 2°55.86 2.2 16 19.9 101130 58
2003-06-17 06:43:53 51°13.67 2°55.85 1.5 15 19.9 101130 58
2003-06-17 06:43:59 51°13.67 2°55.84 1.8 13 20 101130 58
2003-06-17 06:44:03 51°13.67 2°55.84 1.6 18 20 101130 58
2003-06-17 06:44:09 51°13.67 2°55.83 1.8 6 20 101130 58
2003-06-17 06:44:13 51°13.68 2°55.82 1.7 3 20 101130 58
2003-06-17 06:44:19 51°13.68 2°55.81 1.9 6 20 101130 58
2003-06-17 06:44:23 51°13.68 2°55.81 2.4 349 20 101130 58
2003-06-17 06:44:29 51°13.68 2°55.8 2.1 341 20 101130 59
2003-06-17 06:44:33 51°13.69 2°55.79 2.7 359 20 101130 59
2003-06-17 06:44:39 51°13.69 2°55.79 2.8 356 20 101140 59
2003-06-17 06:44:43 51°13.69 2°55.78 2.9 8 20 101140 59
2003-06-17 06:44:49 51°13.69 2°55.78 3.3 10 20 101130 59
2003-06-17 06:44:53 51°13.69 2°55.77 3.1 31 20 101130 59
2003-06-17 06:44:57 51°13.69 2°55.77 3.1 16 20 101140 59
2003-06-17 06:45:01 51°13.69 2°55.77 3.8 25 20 101140 59
2003-06-17 06:45:05 51°13.7 2°55.77 4.1 34 20 101130 58
2003-06-17 06:45:11 51°13.7 2°55.77 4.2 34 20 101130 58
2003-06-17 06:45:15 51°13.7 2°55.77 4 40 20 101130 58
2003-06-17 06:45:19 51°13.7 2°55.77 4.3 41 20 101130 58
2003-06-17 06:45:25 51°13.7 2°55.77 4.3 57 20 101130 57
2003-06-17 06:45:29 51°13.7 2°55.77 4.7 58 20 101130 57
2003-06-17 06:45:33 51°13.7 2°55.77 5.2 54 20 101130 58
2003-06-17 06:45:39 51°13.7 2°55.78 4.3 68 20 101130 58
2003-06-17 06:45:45 51°13.7 2°55.78 4 78 20 101130 58
2003-06-17 06:45:49 51°13.71 2°55.78 4.6 89 20 101130 58
2003-06-17 06:45:53 51°13.71 2°55.78 3.9 91 20 101130 58
2003-06-17 06:45:57 51°13.71 2°55.78 3.6 75 20 101130 58
2003-06-17 06:46:05 51°13.71 2°55.78 3.8 85 19.9 101130 58
2003-06-17 06:46:09 51°13.71 2°55.78 4.1 93 19.9 101130 58
2003-06-17 06:46:13 51°13.71 2°55.79 3.7 90 19.9 101130 58
2003-06-17 06:46:17 51°13.71 2°55.79 4 84 19.9 101130 58
2003-06-17 06:46:25 51°13.72 2°55.79 3.7 103 19.9 101130 58
2003-06-17 06:46:29 51°13.72 2°55.78 2.7 118 19.9 101130 58
2003-06-17 06:46:33 51°13.72 2°55.78 2.8 114 19.9 101130 58
2003-06-17 06:46:39 51°13.72 2°55.78 3.1 104 19.9 101130 58
2003-06-17 06:46:45 51°13.72 2°55.78 3.2 97 19.9 101130 58
2003-06-17 06:46:49 51°13.72 2°55.78 3.2 110 19.9 101130 58
2003-06-17 06:46:53 51°13.72 2°55.78 3.3 131 19.9 101130 58
2003-06-17 06:46:59 51°13.71 2°55.78 3.2 130 19.9 101130 58
2003-06-17 06:47:05 51°13.71 2°55.78 3.2 111 19.9 101130 59
2003-06-17 06:47:11 51°13.71 2°55.77 3.5 126 19.9 101130 59
2003-06-17 06:47:15 51°13.71 2°55.77 3.5 121 20 101140 59
2003-06-17 06:47:21 51°13.71 2°55.77 3.8 124 20 101140 59
2003-06-17 06:47:27 51°13.7 2°55.77 4 115 20 101130 58
2003-06-17 06:47:31 51°13.7 2°55.77 4.1 123 20 101130 58
2003-06-17 06:47:37 51°13.7 2°55.76 4.4 129 19.9 101140 59
2003-06-17 06:47:43 51°13.7 2°55.76 4.8 126 19.9 101140 59
2003-06-17 06:47:47 51°13.69 2°55.76 4.9 126 20 101140 59
2003-06-17 06:47:53 51°13.69 2°55.76 5.2 119 20 101140 59
2003-06-17 06:47:57 51°13.69 2°55.76 5.1 125 20 101140 59
2003-06-17 06:48:03 51°13.69 2°55.76 5.3 123 20 101140 59
2003-06-17 06:48:09 51°13.69 2°55.76 5.1 126 20 101140 58
2003-06-17 06:48:13 51°13.69 2°55.75 5 129 20 101140 58
2003-06-17 06:48:19 51°13.69 2°55.75 5.3 132 20 101140 58
2003-06-17 06:48:23 51°13.69 2°55.75 4.7 124 20 101140 58
2003-06-17 06:48:29 51°13.69 2°55.75 4.6 129 20 101140 58
2003-06-17 06:48:33 51°13.7 2°55.75 4.3 137 20 101140 58
2003-06-17 06:48:39 51°13.7 2°55.75 4 123 20 101140 58
2003-06-17 06:48:43 51°13.7 2°55.74 3.5 124 20 101140 58
2003-06-17 06:48:49 51°13.71 2°55.74 3.9 114 20 101140 58
2003-06-17 06:48:53 51°13.71 2°55.74 3.5 119 20 101140 58
2003-06-17 06:48:59 51°13.72 2°55.73 3.6 118 20 101140 58
2003-06-17 06:49:03 51°13.72 2°55.73 3.8 111 20 101140 58
2003-06-17 06:49:07 51°13.72 2°55.72 3.5 118 20 101140 58
2003-06-17 06:49:11 51°13.73 2°55.72 2.5 131 20 101140 58
2003-06-17 06:49:15 51°13.73 2°55.72 2.4 119 19.9 101140 58
2003-06-17 06:49:21 51°13.74 2°55.71 2.9 106 19.9 101140 58
2003-06-17 06:49:25 51°13.74 2°55.7 2.4 99 20 101140 58
2003-06-17 06:49:29 51°13.75 2°55.7 2.4 86 20 101140 58
2003-06-17 06:49:33 51°13.75 2°55.69 3.1 109 20 101140 58
2003-06-17 06:49:39 51°13.76 2°55.69 3.3 98 20 101140 58
2003-06-17 06:49:45 51°13.77 2°55.68 3.1 67 20 101140 58
2003-06-17 06:49:49 51°13.78 2°55.67 3.7 92 20 101140 58
2003-06-17 06:49:53 51°13.78 2°55.67 2.7 89 20 101140 58
2003-06-17 06:49:57 51°13.79 2°55.66 2.2 106 20 101140 58
2003-06-17 06:50:03 51°13.8 2°55.65 1.9 78 20 101140 58
2003-06-17 06:50:09 51°13.81 2°55.65 2.3 97 20 101140 58
2003-06-17 06:50:13 51°13.82 2°55.64 3.4 108 20 101140 58
2003-06-17 06:50:19 51°13.83 2°55.63 3.6 109 20 101140 58
2003-06-17 06:50:25 51°13.84 2°55.62 3.2 115 20 101140 58
2003-06-17 06:50:29 51°13.84 2°55.62 2.1 90 20 101140 58
2003-06-17 06:50:33 51°13.85 2°55.61 2.8 53 20.1 101140 57
2003-06-17 06:50:39 51°13.86 2°55.61 3.2 73 20.1 101140 57
2003-06-17 06:50:45 51°13.87 2°55.6 3.3 79 20.1 101140 57
2003-06-17 06:50:49 51°13.88 2°55.59 2.2 89 20.1 101140 57
2003-06-17 06:50:53 51°13.89 2°55.59 2.4 106 20.1 101130 57
2003-06-17 06:50:59 51°13.9 2°55.58 2.3 101 20.1 101130 57
2003-06-17 06:51:05 51°13.91 2°55.57 2 120 20.1 101130 58
2003-06-17 06:51:09 51°13.92 2°55.56 1.6 105 20.1 101130 58
2003-06-17 06:51:13 51°13.93 2°55.56 2.1 87 20.1 101130 58
2003-06-17 06:51:19 51°13.94 2°55.55 1.7 48 20.1 101130 58
2003-06-17 06:51:25 51°13.95 2°55.54 2.3 103 20.1 101130 58
2003-06-17 06:51:29 51°13.96 2°55.54 2.9 96 20.1 101130 58
2003-06-17 06:51:33 51°13.96 2°55.53 3.2 95 20.1 101130 58
2003-06-17 06:51:39 51°13.98 2°55.52 3.4 94 20.1 101130 58
2003-06-17 06:51:45 51°13.99 2°55.51 3.6 89 20.2 101130 59
2003-06-17 06:51:49 51°14 2°55.51 3.3 94 20.2 101130 59
2003-06-17 06:51:53 51°14 2°55.5 4.2 94 20.2 101120 59
2003-06-17 06:51:59 51°14.01 2°55.49 4 98 20.2 101120 59
2003-06-17 06:52:05 51°14.03 2°55.49 4.9 96 20.2 101120 58
2003-06-17 06:52:09 51°14.03 2°55.48 4.3 106 20.2 101120 58
2003-06-17 06:52:13 51°14.04 2°55.47 4.8 99 20.2 101120 59
2003-06-17 06:52:19 51°14.05 2°55.47 4.3 100 20.2 101120 59
2003-06-17 06:52:25 51°14.07 2°55.46 4.6 95 20.2 101120 58
2003-06-17 06:52:29 51°14.07 2°55.45 4.5 108 20.2 101120 58
2003-06-17 06:52:33 51°14.08 2°55.45 3.8 95 20.2 101120 57
2003-06-17 06:52:39 51°14.09 2°55.44 3.4 79 20.2 101120 57
2003-06-17 06:52:45 51°14.11 2°55.43 3.7 89 20.2 101110 57
2003-06-17 06:52:49 51°14.11 2°55.42 3 101 20.2 101110 57
2003-06-17 06:52:53 51°14.12 2°55.42 4.2 93 20.2 101110 57
2003-06-17 06:52:57 51°14.13 2°55.41 3.7 98 20.2 101110 57
2003-06-17 06:53:05 51°14.15 2°55.4 3.5 104 20.2 101110 58
2003-06-17 06:53:09 51°14.16 2°55.39 4.6 111 20.2 101110 58
2003-06-17 06:53:13 51°14.16 2°55.39 3.9 105 20.2 101110 58
2003-06-17 06:53:19 51°14.18 2°55.37 4.1 110 20.2 101110 58
2003-06-17 06:53:25 51°14.19 2°55.36 3.7 104 20.2 101110 58
2003-06-17 06:53:29 51°14.2 2°55.35 3 95 20.2 101110 58
2003-06-17 06:53:33 51°14.21 2°55.35 3 90 20.2 101110 58
2003-06-17 06:53:37 51°14.21 2°55.34 2.7 80 20.2 101110 58
2003-06-17 06:53:45 51°14.23 2°55.32 3.7 95 20.2 101110 58
2003-06-17 06:53:49 51°14.24 2°55.31 4.3 101 20.2 101110 58
2003-06-17 06:53:53 51°14.25 2°55.3 3.5 94 20.2 101110 59
2003-06-17 06:53:59 51°14.26 2°55.28 3.2 82 20.2 101110 59
2003-06-17 06:54:05 51°14.27 2°55.26 3.2 79 20.2 101100 60
2003-06-17 06:54:09 51°14.27 2°55.25 3.2 105 20.2 101100 60
2003-06-17 06:54:13 51°14.28 2°55.24 2.5 106 20.2 101100 59
2003-06-17 06:54:17 51°14.29 2°55.23 3.5 108 20.2 101100 59
2003-06-17 06:54:25 51°14.3 2°55.2 2.6 106 20.2 101100 59
2003-06-17 06:54:29 51°14.31 2°55.19 2.8 117 20.2 101100 59
2003-06-17 06:54:33 51°14.32 2°55.17 2.6 82 20.2 101100 59
2003-06-17 06:54:37 51°14.32 2°55.16 1.3 83 20.2 101100 59
2003-06-17 06:54:45 51°14.33 2°55.13 1.9 118 20.2 101100 60
2003-06-17 06:54:49 51°14.34 2°55.11 1.1 111 20.2 101100 60
2003-06-17 06:54:53 51°14.34 2°55.1 2.1 127 20.2 101100 60
2003-06-17 06:54:59 51°14.35 2°55.07 1.3 128 20.2 101100 60
2003-06-17 06:55:05 51°14.36 2°55.05 1.1 111 20.2 101100 60
2003-06-17 06:55:09 51°14.36 2°55.03 1.2 97 20.2 101100 60
2003-06-17 06:55:15 51°14.37 2°55.01 1.4 94 20.2 101100 59
2003-06-17 06:55:19 51°14.37 2°54.99 1.8 55 20.2 101100 59
2003-06-17 06:55:25 51°14.38 2°54.96 1.2 69 20.1 101100 59
2003-06-17 06:55:29 51°14.38 2°54.95 1.7 58 20.1 101100 59
2003-06-17 06:55:33 51°14.38 2°54.93 1.9 60 20.1 101100 59
2003-06-17 06:55:37 51°14.39 2°54.91 1.5 53 20.1 101100 59
2003-06-17 06:55:45 51°14.4 2°54.87 1.9 53 20.2 101100 59
2003-06-17 06:55:49 51°14.4 2°54.85 1.5 32 20.2 101100 59
2003-06-17 06:55:53 51°14.41 2°54.84 1 21 20.1 101100 59
2003-06-17 06:55:57 51°14.41 2°54.82 0.7 333 20.1 101100 59
2003-06-17 06:56:05 51°14.42 2°54.78 1.3   20.1 101100 59
2003-06-17 06:56:09 51°14.42 2°54.76 1.4 338 20.1 101100 59
2003-06-17 06:56:13 51°14.42 2°54.74 1.4 329 20.1 101100 60
2003-06-17 06:56:19 51°14.42 2°54.71 1.6 342 20.1 101100 60
2003-06-17 06:56:25 51°14.42 2°54.68 1.6 329 20.1 101100 60
2003-06-17 06:56:29 51°14.42 2°54.66 1.8 228 20.1 101100 60
2003-06-17 06:56:33 51°14.43 2°54.64 1.7 312 20.1 101110 60
2003-06-17 06:56:39 51°14.43 2°54.61 1.5 308 20.1 101110 60
2003-06-17 06:56:45 51°14.43 2°54.57 1.5 302 20.1 101110 60
2003-06-17 06:56:49 51°14.43 2°54.55 2.6 296 20.1 101110 60
2003-06-17 06:56:53 51°14.43 2°54.53 2.6 309 20.1 101110 60
2003-06-17 06:56:57 51°14.43 2°54.51 2.3 295 20.1 101110 60
2003-06-17 06:57:05 51°14.43 2°54.47 2.6 43 20.1 101110 60
2003-06-17 06:57:09 51°14.43 2°54.45 3 318 20.1 101110 60
2003-06-17 06:57:13 51°14.43 2°54.42 3.4 326 20.1 101110 60
2003-06-17 06:57:19 51°14.43 2°54.39 3.8 311 20.1 101110 60
2003-06-17 06:57:25 51°14.43 2°54.36 4.5 315 20.1 101110 60
2003-06-17 06:57:29 51°14.43 2°54.34 4.5 318 20.1 101110 60
2003-06-17 06:57:33 51°14.42 2°54.32 5.3 297 20.2 101120 60
2003-06-17 06:57:37 51°14.42 2°54.29 5.6 300 20.2 101120 60
2003-06-17 06:57:45 51°14.41 2°54.25 5.9 299 20.2 101110 60
2003-06-17 06:57:49 51°14.4 2°54.23 6.6 312 20.2 101110 60
2003-06-17 06:57:53 51°14.4 2°54.21 6.4 309 20.2 101110 61
2003-06-17 06:57:59 51°14.39 2°54.19 6.3 313 20.2 101110 61
2003-06-17 06:58:05 51°14.38 2°54.16 7.6 310 20.2 101110 61
2003-06-17 06:58:09 51°14.37 2°54.14 6 304 20.2 101110 61
2003-06-17 06:58:13 51°14.36 2°54.12 6 305 20.2 101110 60
2003-06-17 06:58:19 51°14.35 2°54.09 6.1 300 20.2 101110 60
2003-06-17 06:58:25 51°14.34 2°54.06 5.9 309 20.2 101110 60
2003-06-17 06:58:29 51°14.34 2°54.04 6.4 309 20.2 101110 60
2003-06-17 06:58:33 51°14.33 2°54.02 6.1 311 20.2 101110 59
2003-06-17 06:58:39 51°14.32 2°53.99 6.4 308 20.2 101110 59
2003-06-17 06:58:45 51°14.3 2°53.96 6.9 309 20.2 101110 59
2003-06-17 06:58:49 51°14.3 2°53.94 6 312 20.2 101110 59
2003-06-17 06:58:53 51°14.29 2°53.92 6.4 41 20.2 101110 58
2003-06-17 06:58:57 51°14.28 2°53.9 7.3 322 20.2 101110 58
2003-06-17 06:59:05 51°14.26 2°53.86 6.4 321 20.2 101110 58
2003-06-17 06:59:09 51°14.25 2°53.84 7.2 317 20.2 101110 58
2003-06-17 06:59:13 51°14.24 2°53.82 6.8 314 20.2 101110 58
2003-06-17 06:59:17 51°14.24 2°53.8 7.6 317 20.2 101110 58
2003-06-17 06:59:25 51°14.22 2°53.76 8.1 313 20.2 101110 59
2003-06-17 06:59:29 51°14.21 2°53.74 6.9 227 20.2 101110 59
2003-06-17 06:59:33 51°14.2 2°53.72 6.4 43 20.2 101100 58
2003-06-17 06:59:39 51°14.19 2°53.69 6.3 315 20.2 101100 58
2003-06-17 06:59:45 51°14.18 2°53.66 6.3 314 20.2 101110 58
2003-06-17 06:59:49 51°14.17 2°53.64 6.3 323 20.2 101110 58
2003-06-17 06:59:55 51°14.16 2°53.61 6.8 325 20.2 101110 58
2003-06-17 06:59:59 51°14.15 2°53.59 7 329 20.2 101110 58
2003-06-17 07:00:05 51°14.13 2°53.56 7 336 20.2 101110 58
2003-06-17 07:00:09 51°14.13 2°53.54 7.3 340 20.2 101110 58
2003-06-17 07:00:13 51°14.12 2°53.52 8.8 328 20.2 101110 58
2003-06-17 07:00:19 51°14.1 2°53.49 8.7 321 20.2 101110 58
2003-06-17 07:00:25 51°14.09 2°53.46 8.9 319 20.2 101110 59
2003-06-17 07:00:29 51°14.08 2°53.44 7.7 313 20.2 101110 59
2003-06-17 07:00:33 51°14.07 2°53.42 7.8 227 20.3 101100 59
2003-06-17 07:00:37 51°14.06 2°53.4 7.9 43 20.3 101100 59
2003-06-17 07:00:45 51°14.04 2°53.36 7.2 317 20.3 101100 58
2003-06-17 07:00:49 51°14.03 2°53.33 7.1 317 20.3 101100 58
2003-06-17 07:00:53 51°14.03 2°53.31 8.3 318 20.3 101100 58
2003-06-17 07:00:57 51°14.02 2°53.29 7.4 321 20.3 101100 58
2003-06-17 07:01:05 51°14 2°53.25 7.5 323 20.3 101100 57
2003-06-17 07:01:09 51°13.99 2°53.23 8.2 316 20.3 101100 57
2003-06-17 07:01:13 51°13.98 2°53.21 8 318 20.3 101110 57
2003-06-17 07:01:19 51°13.97 2°53.18 8.1 43 20.3 101110 57
2003-06-17 07:01:25 51°13.95 2°53.14 8.1 227 20.3 101100 57
2003-06-17 07:01:29 51°13.95 2°53.12 8.2 316 20.3 101100 57
2003-06-17 07:01:33 51°13.94 2°53.1 7.7 318 20.3 101100 57
2003-06-17 07:01:39 51°13.92 2°53.07 8.2 318 20.3 101100 57
2003-06-17 07:01:45 51°13.91 2°53.04 8 315 20.3 101100 56
2003-06-17 07:01:49 51°13.9 2°53.01 8.4 317 20.3 101100 56
2003-06-17 07:01:53 51°13.89 2°52.99 8.1 321 20.3 101100 56
2003-06-17 07:01:59 51°13.88 2°52.96 8.6 309 20.3 101100 56
2003-06-17 07:02:05 51°13.87 2°52.93 8 42 20.3 101100 57
2003-06-17 07:02:09 51°13.86 2°52.91 8.8 228 20.3 101100 57
2003-06-17 07:02:13 51°13.85 2°52.89 8.3 317 20.3 101100 57
2003-06-17 07:02:19 51°13.83 2°52.85 8.2 316 20.3 101100 57
2003-06-17 07:02:25 51°13.82 2°52.82 7.9 317 20.3 101100 57
2003-06-17 07:02:29 51°13.81 2°52.8 7.2 321 20.3 101100 57
2003-06-17 07:02:35 51°13.8 2°52.77 8.8 320 20.2 101100 57
2003-06-17 07:02:39 51°13.79 2°52.74 9.5 324 20.2 101100 57
2003-06-17 07:02:45 51°13.77 2°52.71 10.6 325 20.2 101100 57
2003-06-17 07:02:49 51°13.76 2°52.69 9.1 330 20.2 101100 57
2003-06-17 07:02:53 51°13.75 2°52.67 8.2 326 20.2 101100 57
2003-06-17 07:02:57 51°13.75 2°52.64 7.8 320 20.2 101100 57
2003-06-17 07:03:05 51°13.73 2°52.6 7.5 316 20.3 101100 58
2003-06-17 07:03:09 51°13.72 2°52.58 7.6 331 20.3 101100 58
2003-06-17 07:03:13 51°13.71 2°52.55 7.8 320 20.2 101100 57
2003-06-17 07:03:17 51°13.7 2°52.53 7.5 327 20.2 101100 57
2003-06-17 07:03:25 51°13.68 2°52.49 6.8 330 20.2 101100 57
2003-06-17 07:03:29 51°13.67 2°52.47 8.5 331 20.2 101100 57
2003-06-17 07:03:33 51°13.66 2°52.44 8.4 328 20.2 101100 58
2003-06-17 07:03:37 51°13.65 2°52.42 8.3 327 20.2 101100 58
2003-06-17 07:03:45 51°13.63 2°52.38 8.8 327 20.2 101100 57
2003-06-17 07:03:49 51°13.62 2°52.36 7.3 320 20.2 101100 57
2003-06-17 07:03:53 51°13.61 2°52.33 8.5 325 20.3 101100 59
2003-06-17 07:03:59 51°13.6 2°52.3 9.2 327 20.3 101100 59
2003-06-17 07:04:05 51°13.59 2°52.27 9.3 321 20.3 101100 58
2003-06-17 07:04:09 51°13.58 2°52.24 8.2 42 20.3 101100 58
2003-06-17 07:04:13 51°13.57 2°52.22 7.5 44 20.2 101100 58
2003-06-17 07:04:17 51°13.56 2°52.2 8 317 20.2 101100 58
2003-06-17 07:04:25 51°13.54 2°52.15 6.7 317 20.2 101100 58
2003-06-17 07:04:29 51°13.53 2°52.13 6.9 323 20.2 101100 58
2003-06-17 07:04:33 51°13.52 2°52.11 7.5 323 20.2 101100 58
2003-06-17 07:04:37 51°13.51 2°52.09 7.8 327 20.2 101100 58
2003-06-17 07:04:45 51°13.49 2°52.04 8.2 327 20.2 101100 57
2003-06-17 07:04:49 51°13.48 2°52.02 8.5 323 20.2 101100 57
2003-06-17 07:04:53 51°13.47 2°52 9.4 319 20.2 101100 58
2003-06-17 07:04:59 51°13.46 2°51.97 7.8 319 20.2 101100 58
2003-06-17 07:05:05 51°13.45 2°51.93 8 317 20.2 101100 58
2003-06-17 07:05:09 51°13.44 2°51.91 7.8 322 20.2 101100 58
2003-06-17 07:05:13 51°13.43 2°51.89 7.9 324 20.2 101100 58
2003-06-17 07:05:19 51°13.42 2°51.85 7.6 323 20.2 101100 58
2003-06-17 07:05:25 51°13.4 2°51.82 8.3 323 20.2 101100 57
2003-06-17 07:05:29 51°13.39 2°51.8 8.8 329 20.2 101100 57
2003-06-17 07:05:33 51°13.38 2°51.78 8.1 320 20.1 101110 58
2003-06-17 07:05:37 51°13.37 2°51.75 8.8 317 20.1 101110 58
2003-06-17 07:05:45 51°13.36 2°51.71 8.9 318 20.1 101100 59
2003-06-17 07:05:49 51°13.35 2°51.69 8.6 321 20.1 101100 59
2003-06-17 07:05:53 51°13.34 2°51.67 8.3 321 20.1 101100 59
2003-06-17 07:05:57 51°13.33 2°51.65 8.5 326 20.1 101100 59
2003-06-17 07:06:05 51°13.31 2°51.6 8.7 321 20.1 101090 58
2003-06-17 07:06:09 51°13.3 2°51.58 8.4 320 20.1 101090 58
2003-06-17 07:06:13 51°13.29 2°51.56 8.1 325 20.1 101100 58
2003-06-17 07:06:17 51°13.28 2°51.54 7.7 323 20.1 101100 58
2003-06-17 07:06:25 51°13.26 2°51.49 8 325 20.1 101100 59
2003-06-17 07:06:29 51°13.25 2°51.47 8.2 324 20.1 101100 59
2003-06-17 07:06:33 51°13.24 2°51.45 8.4 320 20.1 101100 58
2003-06-17 07:06:39 51°13.23 2°51.41 8.1 319 20.1 101100 58
2003-06-17 07:06:45 51°13.22 2°51.38 7.9 315 20.1 101100 59
2003-06-17 07:06:49 51°13.21 2°51.36 8.1 318 20.1 101100 59
2003-06-17 07:06:53 51°13.2 2°51.34 8.2 319 20.1 101090 59
2003-06-17 07:06:57 51°13.19 2°51.31 8.2 326 20.1 101090 59
2003-06-17 07:07:05 51°13.17 2°51.27 8 37 20 101100 59
2003-06-17 07:07:09 51°13.16 2°51.25 8.4 311 20 101100 59
2003-06-17 07:07:13 51°13.16 2°51.22 8 311 20.1 101100 60
2003-06-17 07:07:17 51°13.15 2°51.2 7.3 312 20.1 101100 60
2003-06-17 07:07:25 51°13.13 2°51.15 7 313 20.1 101100 60
2003-06-17 07:07:29 51°13.12 2°51.13 7.3 316 20.1 101100 60
2003-06-17 07:07:33 51°13.12 2°51.11 7.3 314 20 101100 60
2003-06-17 07:07:39 51°13.11 2°51.07 7.6 42 20 101100 60
2003-06-17 07:07:45 51°13.09 2°51.03 7.4 41 20 101100 59
2003-06-17 07:07:49 51°13.09 2°51.01 8.5 318 20 101100 59
2003-06-17 07:07:53 51°13.08 2°50.99 8.2 321 20 101100 60
2003-06-17 07:07:59 51°13.06 2°50.95 8.6 42 20 101100 60
2003-06-17 07:08:05 51°13.05 2°50.92 7.9 317 20 101100 60
2003-06-17 07:08:09 51°13.04 2°50.9 8.2 315 20 101100 60
2003-06-17 07:08:13 51°13.04 2°50.87 8 319 20 101100 61
2003-06-17 07:08:19 51°13.02 2°50.84 8.7 316 20 101100 61
2003-06-17 07:08:25 51°13.01 2°50.8 8.8 43 19.9 101090 61
2003-06-17 07:08:29 51°13 2°50.78 8.6 315 19.9 101090 61
2003-06-17 07:08:33 51°13 2°50.76 8.8 228 19.9 101090 61
2003-06-17 07:08:39 51°12.98 2°50.72 8.6 312 19.9 101090 61
2003-06-17 07:08:45 51°12.97 2°50.68 8 311 19.9 101090 61
2003-06-17 07:08:49 51°12.97 2°50.66 7.6 227 19.9 101090 61
2003-06-17 07:08:55 51°12.95 2°50.63 7.5 321 19.9 101080 61
2003-06-17 07:08:59 51°12.94 2°50.6 8.3 317 19.9 101080 61
2003-06-17 07:09:05 51°12.93 2°50.57 8.3 229 19.9 101090 60
2003-06-17 07:09:09 51°12.92 2°50.55 7.5 44 19.9 101090 60
2003-06-17 07:09:13 51°12.92 2°50.52 7.6 315 19.9 101090 61
2003-06-17 07:09:17 51°12.91 2°50.5 8.1 317 19.9 101090 61
2003-06-17 07:09:25 51°12.89 2°50.45 7.8 324 19.9 101090 61
2003-06-17 07:09:29 51°12.88 2°50.43 8 43 19.9 101090 61
2003-06-17 07:09:33 51°12.87 2°50.41 7.7 317 19.9 101090 61
2003-06-17 07:09:37 51°12.87 2°50.38 8 322 19.9 101090 61
2003-06-17 07:09:45 51°12.85 2°50.34 8.1 321 19.8 101090 62
2003-06-17 07:09:49 51°12.84 2°50.31 9 39 19.8 101090 62
2003-06-17 07:09:53 51°12.84 2°50.29 9 314 19.8 101090 62
2003-06-17 07:09:57 51°12.83 2°50.27 8 318 19.8 101090 62
2003-06-17 07:10:05 51°12.81 2°50.22 9 43 19.8 101090 63
2003-06-17 07:10:09 51°12.8 2°50.2 8.4 317 19.8 101090 63
2003-06-17 07:10:13 51°12.79 2°50.17 9.4 313 19.8 101090 62
2003-06-17 07:10:19 51°12.78 2°50.14 8.3 315 19.8 101090 62
2003-06-17 07:10:25 51°12.77 2°50.1 7.7 318 19.8 101080 62
2003-06-17 07:10:29 51°12.76 2°50.08 9 315 19.8 101080 62
2003-06-17 07:10:33 51°12.75 2°50.06 8.9 314 19.8 101090 62
2003-06-17 07:10:37 51°12.74 2°50.04 8.9 312 19.8 101090 62
2003-06-17 07:10:45 51°12.73 2°49.99 7.7 309 19.8 101090 62
2003-06-17 07:10:49 51°12.72 2°49.97 7.7 316 19.8 101090 62
2003-06-17 07:10:53 51°12.71 2°49.94 7.9 321 19.7 101090 62
2003-06-17 07:10:57 51°12.7 2°49.92 7.7 317 19.7 101090 62
2003-06-17 07:11:05 51°12.69 2°49.87 7.7 320 19.7 101090 62
2003-06-17 07:11:09 51°12.68 2°49.85 9 318 19.7 101090 62
2003-06-17 07:11:13 51°12.67 2°49.82 7.9 316 19.7 101090 62
2003-06-17 07:11:19 51°12.66 2°49.79 7.6 315 19.7 101090 62
2003-06-17 07:11:25 51°12.65 2°49.75 8.4 319 19.7 101090 62
2003-06-17 07:11:29 51°12.64 2°49.73 7.7 318 19.7 101090 62
2003-06-17 07:11:33 51°12.63 2°49.71 7.8 328 19.7 101090 62
2003-06-17 07:11:39 51°12.62 2°49.67 8.5 321 19.7 101090 62
2003-06-17 07:11:45 51°12.61 2°49.64 8.1 318 19.7 101090 62
2003-06-17 07:11:49 51°12.6 2°49.61 7.7 320 19.7 101090 62
2003-06-17 07:11:53 51°12.59 2°49.59 7.9 319 19.7 101090 62
2003-06-17 07:11:57 51°12.58 2°49.57 8.3 323 19.7 101090 62
2003-06-17 07:12:05 51°12.57 2°49.52 8.5 318 19.6 101090 62
2003-06-17 07:12:09 51°12.56 2°49.5 7.6 318 19.6 101090 62
2003-06-17 07:12:13 51°12.55 2°49.47 7.5 319 19.7 101100 63
2003-06-17 07:12:17 51°12.54 2°49.45 7.3 321 19.7 101100 63
2003-06-17 07:12:25 51°12.53 2°49.4 7.9 324 19.6 101100 63
2003-06-17 07:12:29 51°12.52 2°49.38 7.6 323 19.6 101100 63
2003-06-17 07:12:33 51°12.51 2°49.36 8 321 19.6 101100 62
2003-06-17 07:12:37 51°12.51 2°49.33 7.6 324 19.6 101100 62
2003-06-17 07:12:45 51°12.49 2°49.29 8.1 322 19.6 101100 63
2003-06-17 07:12:49 51°12.48 2°49.26 8.4 327 19.6 101100 63
2003-06-17 07:12:53 51°12.47 2°49.24 7.6 324 19.6 101100 63
2003-06-17 07:12:59 51°12.46 2°49.21 8.2 323 19.6 101100 63
2003-06-17 07:13:05 51°12.45 2°49.17 8.1 318 19.6 101100 63
2003-06-17 07:13:09 51°12.44 2°49.15 8.2 318 19.6 101100 63
2003-06-17 07:13:13 51°12.43 2°49.12 8.4 321 19.6 101100 63
2003-06-17 07:13:17 51°12.42 2°49.1 8.5 323 19.6 101100 63
2003-06-17 07:13:25 51°12.41 2°49.06 8.1 320 19.6 101100 64
2003-06-17 07:13:29 51°12.4 2°49.03 8 318 19.6 101100 64
2003-06-17 07:13:33 51°12.39 2°49.01 7.9 317 19.6 101100 63
2003-06-17 07:13:37 51°12.38 2°48.99 7.6 321 19.6 101100 63
2003-06-17 07:13:45 51°12.37 2°48.94 7 319 19.6 101100 63
2003-06-17 07:13:49 51°12.36 2°48.92 8 322 19.6 101100 63
2003-06-17 07:13:53 51°12.35 2°48.89 7.8 323 19.6 101100 63
2003-06-17 07:13:59 51°12.34 2°48.86 8.3 322 19.6 101100 63
2003-06-17 07:14:05 51°12.33 2°48.82 7.5 328 19.6 101100 63
2003-06-17 07:14:09 51°12.32 2°48.8 8.3 320 19.6 101100 63
2003-06-17 07:14:13 51°12.31 2°48.78 8.4 321 19.6 101100 63
2003-06-17 07:14:19 51°12.3 2°48.74 8.2 321 19.6 101100 63
2003-06-17 07:14:25 51°12.29 2°48.71 8.2 324 19.6 101110 63
2003-06-17 07:14:29 51°12.28 2°48.68 8.9 320 19.6 101110 63
2003-06-17 07:14:33 51°12.27 2°48.66 8.4 323 19.5 101100 63
2003-06-17 07:14:37 51°12.26 2°48.64 8.3 326 19.5 101100 63
2003-06-17 07:14:45 51°12.25 2°48.59 8.9 322 19.6 101100 64
2003-06-17 07:14:49 51°12.24 2°48.57 8 322 19.6 101100 64
2003-06-17 07:14:53 51°12.23 2°48.54 8.1 321 19.5 101100 63
2003-06-17 07:14:57 51°12.22 2°48.52 7.9 325 19.5 101100 63
2003-06-17 07:15:05 51°12.21 2°48.47 7.6 325 19.5 101100 64
2003-06-17 07:15:09 51°12.2 2°48.45 8.6 327 19.5 101100 64
2003-06-17 07:15:13 51°12.19 2°48.43 8.6 325 19.5 101100 63
2003-06-17 07:15:19 51°12.18 2°48.39 8.2 323 19.5 101100 63
2003-06-17 07:15:25 51°12.17 2°48.36 8.1 322 19.5 101100 63
2003-06-17 07:15:29 51°12.16 2°48.33 8.1 324 19.5 101100 63
2003-06-17 07:15:33 51°12.15 2°48.31 7.7 322 19.5 101110 64
2003-06-17 07:15:37 51°12.14 2°48.29 8 326 19.5 101110 64
2003-06-17 07:15:45 51°12.13 2°48.24 8.2 325 19.5 101110 64
2003-06-17 07:15:49 51°12.12 2°48.22 7.9 324 19.5 101110 64
2003-06-17 07:15:53 51°12.11 2°48.19 8.3 321 19.5 101110 63
2003-06-17 07:15:57 51°12.1 2°48.17 8.2 331 19.5 101110 63
2003-06-17 07:16:05 51°12.09 2°48.12 8.3 332 19.5 101120 64
2003-06-17 07:16:09 51°12.08 2°48.1 9.1 332 19.5 101120 64
2003-06-17 07:16:13 51°12.07 2°48.08 9.5 329 19.5 101110 65
2003-06-17 07:16:19 51°12.06 2°48.04 8.5 330 19.5 101110 65
2003-06-17 07:16:25 51°12.05 2°48.01 8.6 331 19.5 101110 65
2003-06-17 07:16:29 51°12.04 2°47.98 8.4 332 19.5 101110 65
2003-06-17 07:16:33 51°12.03 2°47.96 8.7 332 19.5 101110 65
2003-06-17 07:16:39 51°12.02 2°47.92 8.7 327 19.5 101110 65
2003-06-17 07:16:45 51°12.01 2°47.89 8.7 330 19.5 101120 65
2003-06-17 07:16:49 51°12 2°47.86 8.2 334 19.5 101120 65
2003-06-17 07:16:53 51°11.99 2°47.84 8.3 333 19.5 101110 65
2003-06-17 07:16:57 51°11.99 2°47.82 7.6 332 19.5 101110 65
2003-06-17 07:17:05 51°11.97 2°47.77 8.3 334 19.5 101120 64
2003-06-17 07:17:09 51°11.96 2°47.75 9.1 332 19.5 101120 64
2003-06-17 07:17:13 51°11.95 2°47.73 9.8 331 19.5 101120 64
2003-06-17 07:17:17 51°11.94 2°47.7 9.7 327 19.5 101120 64
2003-06-17 07:17:25 51°11.93 2°47.66 9.7 325 19.5 101120 64
2003-06-17 07:17:29 51°11.92 2°47.63 8.6 329 19.5 101120 64
2003-06-17 07:17:33 51°11.91 2°47.61 9.2 329 19.5 101120 65
2003-06-17 07:17:37 51°11.91 2°47.58 9 323 19.5 101120 65
2003-06-17 07:17:45 51°11.89 2°47.54 9.1 326 19.5 101120 65
2003-06-17 07:17:49 51°11.89 2°47.51 8.9 323 19.5 101120 65
2003-06-17 07:17:53 51°11.88 2°47.49 8.6 327 19.5 101120 65
2003-06-17 07:17:57 51°11.87 2°47.46 8.7 324 19.5 101120 65
2003-06-17 07:18:05 51°11.86 2°47.41 8.6 328 19.5 101120 64
2003-06-17 07:18:09 51°11.86 2°47.39 9 320 19.5 101120 64
2003-06-17 07:18:13 51°11.85 2°47.36 8.4 325 19.5 101120 64
2003-06-17 07:18:19 51°11.84 2°47.33 8.8 326 19.5 101120 64
2003-06-17 07:18:25 51°11.83 2°47.29 9.1 326 19.5 101120 65
2003-06-17 07:18:29 51°11.82 2°47.27 10.3 320 19.5 101120 65
2003-06-17 07:18:33 51°11.81 2°47.24 9.5 323 19.5 101120 64
2003-06-17 07:18:37 51°11.81 2°47.22 8.6 325 19.5 101120 64
2003-06-17 07:18:45 51°11.79 2°47.17 9.1 325 19.4 101120 63
2003-06-17 07:18:49 51°11.79 2°47.15 8.4 325 19.4 101120 63
2003-06-17 07:18:53 51°11.78 2°47.12 8.8 327 19.4 101120 64
2003-06-17 07:18:57 51°11.77 2°47.1 9.3 318 19.4 101120 64
2003-06-17 07:19:05 51°11.76 2°47.05 8.9 318 19.4 101120 64
2003-06-17 07:19:09 51°11.76 2°47.02 9.4 327 19.4 101120 64
2003-06-17 07:19:13 51°11.75 2°47 9.1 325 19.5 101120 64
2003-06-17 07:19:19 51°11.74 2°46.96 9.2 318 19.5 101120 64
2003-06-17 07:19:25 51°11.73 2°46.93 7.9 321 19.4 101120 64
2003-06-17 07:19:29 51°11.72 2°46.9 8.4 328 19.4 101120 64
2003-06-17 07:19:33 51°11.72 2°46.88 8.8 329 19.4 101120 63
2003-06-17 07:19:39 51°11.7 2°46.84 8.7 325 19.4 101120 63
2003-06-17 07:19:45 51°11.69 2°46.8 8.9 326 19.4 101120 63
2003-06-17 07:19:49 51°11.69 2°46.78 8.5 324 19.4 101120 63
2003-06-17 07:19:53 51°11.68 2°46.76 8.9 323 19.4 101120 64
2003-06-17 07:19:57 51°11.67 2°46.73 8.6 324 19.4 101120 64
2003-06-17 07:20:05 51°11.66 2°46.68 8 317 19.4 101120 64
2003-06-17 07:20:09 51°11.66 2°46.66 8.9 325 19.4 101120 64
2003-06-17 07:20:13 51°11.65 2°46.63 8.5 327 19.4 101120 64
2003-06-17 07:20:17 51°11.64 2°46.61 8.7 323 19.4 101120 64
2003-06-17 07:20:25 51°11.63 2°46.56 8.3 327 19.3 101120 64
2003-06-17 07:20:29 51°11.62 2°46.53 8.8 329 19.3 101120 64
2003-06-17 07:20:33 51°11.62 2°46.51 8.8 332 19.3 101120 65
2003-06-17 07:20:37 51°11.61 2°46.49 9 327 19.3 101120 65
2003-06-17 07:20:45 51°11.6 2°46.44 8.6 329 19.3 101120 64
2003-06-17 07:20:49 51°11.59 2°46.41 8.9 333 19.3 101120 64
2003-06-17 07:20:53 51°11.58 2°46.39 8.7 332 19.3 101120 65
2003-06-17 07:20:59 51°11.57 2°46.35 9 328 19.3 101120 65
2003-06-17 07:21:05 51°11.56 2°46.32 8.7 327 19.3 101120 65
2003-06-17 07:21:09 51°11.56 2°46.29 8.6 327 19.3 101120 65
2003-06-17 07:21:13 51°11.55 2°46.27 8.3 334 19.3 101120 66
2003-06-17 07:21:17 51°11.54 2°46.24 8.1 331 19.3 101120 66
2003-06-17 07:21:25 51°11.53 2°46.19 8.3 331 19.3 101120 65
2003-06-17 07:21:29 51°11.52 2°46.17 7.9 330 19.3 101120 65
2003-06-17 07:21:33 51°11.52 2°46.14 8.2 329 19.3 101120 66
2003-06-17 07:21:39 51°11.51 2°46.11 8.9 327 19.3 101120 66
2003-06-17 07:21:45 51°11.5 2°46.07 8.8 326 19.3 101120 66
2003-06-17 07:21:49 51°11.49 2°46.05 8.2 328 19.3 101120 66
2003-06-17 07:21:53 51°11.48 2°46.02 8.9 325 19.3 101120 67
2003-06-17 07:21:59 51°11.47 2°45.98 8 327 19.3 101120 67
2003-06-17 07:22:05 51°11.46 2°45.95 8.5 331 19.3 101120 66
2003-06-17 07:22:09 51°11.46 2°45.92 7.9 328 19.3 101120 66
2003-06-17 07:22:13 51°11.45 2°45.9 8.6 326 19.3 101120 66
2003-06-17 07:22:19 51°11.44 2°45.86 8.6 330 19.3 101120 66
2003-06-17 07:22:25 51°11.43 2°45.83 8.4 328 19.3 101120 66
2003-06-17 07:22:29 51°11.42 2°45.8 8.3 328 19.3 101120 66
2003-06-17 07:22:33 51°11.41 2°45.78 8.3 335 19.2 101130 66
2003-06-17 07:22:39 51°11.4 2°45.74 8.4 328 19.2 101130 66
2003-06-17 07:22:45 51°11.39 2°45.71 8.1 329 19.2 101130 67
2003-06-17 07:22:49 51°11.39 2°45.68 7.8 331 19.2 101130 67
2003-06-17 07:22:55 51°11.38 2°45.64 7.8 332 19.3 101130 67
2003-06-17 07:22:57 51°11.37 2°45.63 8.2 339 19.3 101130 67
2003-06-17 07:23:05 51°11.36 2°45.58 8.7 328 19.2 101130 67
2003-06-17 07:23:09 51°11.36 2°45.56 7.9 333 19.2 101130 67
2003-06-17 07:23:13 51°11.35 2°45.53 8.4 334 19.2 101130 67
2003-06-17 07:23:17 51°11.34 2°45.51 9.1 333 19.2 101130 67
2003-06-17 07:23:25 51°11.33 2°45.46 8.6 329 19.2 101130 68
2003-06-17 07:23:29 51°11.32 2°45.44 8 332 19.2 101130 68
2003-06-17 07:23:33 51°11.32 2°45.41 8.9 333 19.2 101130 67
2003-06-17 07:23:39 51°11.31 2°45.38 8.5 333 19.2 101130 67
2003-06-17 07:23:45 51°11.3 2°45.34 8.1 333 19.2 101130 67
2003-06-17 07:23:49 51°11.29 2°45.32 8.4 336 19.2 101130 67
2003-06-17 07:23:53 51°11.28 2°45.29 8.4 334 19.2 101130 67
2003-06-17 07:23:59 51°11.27 2°45.25 8.8 334 19.2 101130 67
2003-06-17 07:24:05 51°11.26 2°45.22 8.2 332 19.2 101130 68
2003-06-17 07:24:09 51°11.26 2°45.19 8.3 337 19.2 101130 68
2003-06-17 07:24:13 51°11.25 2°45.17 9.2 335 19.2 101130 67
2003-06-17 07:24:17 51°11.24 2°45.14 9 336 19.2 101130 67
2003-06-17 07:24:25 51°11.23 2°45.1 8.9 329 19.2 101130 67
2003-06-17 07:24:29 51°11.22 2°45.07 9.5 334 19.2 101130 67
2003-06-17 07:24:33 51°11.22 2°45.05 8.7 329 19.2 101130 67
2003-06-17 07:24:37 51°11.21 2°45.02 9.4 334 19.2 101130 67
2003-06-17 07:24:45 51°11.2 2°44.97 8.8 330 19.2 101140 67
2003-06-17 07:24:49 51°11.19 2°44.95 8.1 336 19.2 101140 67
2003-06-17 07:24:53 51°11.18 2°44.92 8.3 336 19.2 101140 67
2003-06-17 07:24:57 51°11.18 2°44.9 8.5 338 19.2 101140 67
2003-06-17 07:25:05 51°11.16 2°44.85 8.5 340 19.2 101130 67
2003-06-17 07:25:09 51°11.16 2°44.83 8.4 335 19.2 101130 67
2003-06-17 07:25:13 51°11.15 2°44.8 8.6 336 19.2 101130 67
2003-06-17 07:25:19 51°11.14 2°44.77 8.7 335 19.2 101130 67
2003-06-17 07:25:25 51°11.13 2°44.73 9 333 19.2 101130 68
2003-06-17 07:25:29 51°11.12 2°44.71 8.9 340 19.2 101130 68
2003-06-17 07:25:33 51°11.12 2°44.68 9.1 332 19.2 101140 67
2003-06-17 07:25:37 51°11.11 2°44.66 9.6 336 19.2 101140 67
2003-06-17 07:25:45 51°11.1 2°44.61 9.2 334 19.2 101140 67
2003-06-17 07:25:49 51°11.09 2°44.58 9.1 331 19.2 101140 67
2003-06-17 07:25:53 51°11.09 2°44.56 8.9 333 19.2 101140 68
2003-06-17 07:25:59 51°11.08 2°44.52 8.5 331 19.2 101140 68
2003-06-17 07:26:05 51°11.07 2°44.49 8.2 336 19.2 101140 67
2003-06-17 07:26:09 51°11.06 2°44.46 8.4 335 19.2 101140 67
2003-06-17 07:26:13 51°11.05 2°44.44 8.1 333 19.2 101130 67
2003-06-17 07:26:19 51°11.04 2°44.4 7.9 334 19.2 101130 67
2003-06-17 07:26:25 51°11.03 2°44.37 7.9 336 19.2 101130 67
2003-06-17 07:26:29 51°11.03 2°44.34 7.9 337 19.2 101130 67
2003-06-17 07:26:33 51°11.02 2°44.32 8.5 335 19.1 101140 66
2003-06-17 07:26:39 51°11.01 2°44.28 8.4 340 19.1 101140 66
2003-06-17 07:26:45 51°11 2°44.24 8.8 336 19.2 101140 67
2003-06-17 07:26:49 51°10.99 2°44.22 8.2 336 19.2 101140 67
2003-06-17 07:26:53 51°10.99 2°44.2 8.4 343 19.2 101140 67
2003-06-17 07:26:59 51°10.98 2°44.16 9.1 339 19.2 101140 67
2003-06-17 07:27:05 51°10.97 2°44.12 9.1 339 19.2 101140 67
2003-06-17 07:27:09 51°10.96 2°44.1 9 338 19.2 101140 67
2003-06-17 07:27:13 51°10.95 2°44.07 8.5 342 19.2 101140 67
2003-06-17 07:27:19 51°10.95 2°44.04 8.7 336 19.2 101140 67
2003-06-17 07:27:25 51°10.94 2°44 9 335 19.2 101140 67
2003-06-17 07:27:29 51°10.93 2°43.98 8.5 339 19.2 101140 67
2003-06-17 07:27:33 51°10.92 2°43.95 9.6 340 19.2 101140 67
2003-06-17 07:27:37 51°10.92 2°43.93 9 338 19.2 101140 67
2003-06-17 07:27:45 51°10.9 2°43.88 8.8 339 19.2 101140 68
2003-06-17 07:27:49 51°10.9 2°43.86 9.4 340 19.2 101140 68
2003-06-17 07:27:53 51°10.89 2°43.83 9.3 336 19.2 101140 67
2003-06-17 07:27:57 51°10.89 2°43.81 9.3 339 19.2 101140 67
2003-06-17 07:28:05 51°10.87 2°43.76 9.2 339 19.2 101140 67
2003-06-17 07:28:09 51°10.87 2°43.74 9.7 337 19.2 101140 67
2003-06-17 07:28:13 51°10.86 2°43.71 9.5 338 19.1 101140 67
2003-06-17 07:28:19 51°10.85 2°43.68 9.5 341 19.1 101140 67
2003-06-17 07:28:25 51°10.84 2°43.64 8.2 337 19.1 101140 67
2003-06-17 07:28:29 51°10.83 2°43.62 8.8 338 19.1 101140 67
2003-06-17 07:28:33 51°10.83 2°43.59 8.9 339 19.1 101140 66
2003-06-17 07:28:37 51°10.82 2°43.57 8.2 340 19.1 101140 66
2003-06-17 07:28:45 51°10.81 2°43.52 8.8 337 19.1 101150 67
2003-06-17 07:28:49 51°10.8 2°43.49 8.6 336 19.1 101150 67
2003-06-17 07:28:53 51°10.8 2°43.47 8.8 340 19.1 101150 67
2003-06-17 07:28:57 51°10.79 2°43.44 8.3 339 19.1 101150 67
2003-06-17 07:29:05 51°10.78 2°43.4 8.4 339 19.1 101140 67
2003-06-17 07:29:09 51°10.77 2°43.37 8.7 340 19.1 101140 67
2003-06-17 07:29:13 51°10.76 2°43.35 8.5 345 19.1 101150 66
2003-06-17 07:29:19 51°10.75 2°43.31 9.5 339 19.1 101150 66
2003-06-17 07:29:25 51°10.74 2°43.28 8.8 337 19.1 101150 67
2003-06-17 07:29:29 51°10.74 2°43.25 8.2 335 19.1 101150 67
2003-06-17 07:29:33 51°10.73 2°43.23 8.3 336 19.1 101150 67
2003-06-17 07:29:39 51°10.72 2°43.19 7.9 337 19.1 101150 67
2003-06-17 07:29:45 51°10.71 2°43.16 8.9 338 19.1 101150 67
2003-06-17 07:29:49 51°10.71 2°43.13 8.3 337 19.1 101150 67
2003-06-17 07:29:53 51°10.7 2°43.11 7.8 338 19.1 101160 66
2003-06-17 07:29:57 51°10.69 2°43.08 8.3 339 19.1 101160 66
2003-06-17 07:30:05 51°10.68 2°43.04 8 344 19.1 101150 67
2003-06-17 07:30:09 51°10.68 2°43.01 8.9 340 19.1 101150 67
2003-06-17 07:30:13 51°10.67 2°42.99 9.1 340 19.1 101150 66
2003-06-17 07:30:17 51°10.66 2°42.96 8.9 338 19.1 101150 66
2003-06-17 07:30:25 51°10.65 2°42.92 8.7 339 19.1 101160 66
2003-06-17 07:30:29 51°10.64 2°42.89 8.6 342 19.1 101160 66
2003-06-17 07:30:33 51°10.64 2°42.87 8.4 343 19.1 101150 67
2003-06-17 07:30:37 51°10.63 2°42.85 8.5 342 19.1 101150 67
2003-06-17 07:30:45 51°10.62 2°42.8 8.3 343 19.1 101150 66
2003-06-17 07:30:49 51°10.61 2°42.78 8.4 343 19.1 101150 66
2003-06-17 07:30:53 51°10.6 2°42.75 7.9 340 19.1 101150 66
2003-06-17 07:30:57 51°10.6 2°42.73 7.9 340 19.1 101150 66
2003-06-17 07:31:05 51°10.59 2°42.68 8.2 344 19.1 101160 66
2003-06-17 07:31:09 51°10.58 2°42.66 8.2 348 19.1 101160 66
2003-06-17 07:31:13 51°10.57 2°42.63 7.8 348 19.1 101150 66
2003-06-17 07:31:19 51°10.57 2°42.6 7.9 346 19.1 101150 66
2003-06-17 07:31:25 51°10.56 2°42.56 8.8 346 19.1 101160 67
2003-06-17 07:31:29 51°10.55 2°42.54 7.8 347 19.1 101160 67
2003-06-17 07:31:33 51°10.54 2°42.51 7.6 344 19.1 101160 67
2003-06-17 07:31:37 51°10.54 2°42.49 8.2 342 19.1 101160 67
2003-06-17 07:31:45 51°10.52 2°42.44 7.7 349 19.1 101160 67
2003-06-17 07:31:49 51°10.52 2°42.42 8 350 19.1 101160 67
2003-06-17 07:31:53 51°10.51 2°42.39 8.4 348 19.1 101160 67
2003-06-17 07:31:57 51°10.5 2°42.37 8.1 345 19.1 101160 67
2003-06-17 07:32:05 51°10.49 2°42.32 8.1 347 19 101160 67
2003-06-17 07:32:09 51°10.49 2°42.3 8 345 19 101160 67
2003-06-17 07:32:13 51°10.48 2°42.27 7.9 347 19.1 101160 68
2003-06-17 07:32:19 51°10.47 2°42.24 8.2 352 19.1 101160 68
2003-06-17 07:32:25 51°10.46 2°42.2 8.3 354 19 101160 67
2003-06-17 07:32:29 51°10.46 2°42.18 8.2 355 19 101160 67
2003-06-17 07:32:33 51°10.45 2°42.15 8.1 354 19 101160 67
2003-06-17 07:32:39 51°10.44 2°42.12 8.4 351 19 101160 67
2003-06-17 07:32:45 51°10.43 2°42.08 8.3 351 19 101160 68
2003-06-17 07:32:49 51°10.43 2°42.06 8.2 350 19 101160 68
2003-06-17 07:32:53 51°10.42 2°42.03 8 350 19.1 101160 68
2003-06-17 07:32:57 51°10.42 2°42.01 8.7 354 19.1 101160 68
2003-06-17 07:33:05 51°10.4 2°41.96 8.7 352 19 101160 68
2003-06-17 07:33:09 51°10.4 2°41.94 8.3 355 19 101160 68
2003-06-17 07:33:13 51°10.39 2°41.91 8.3 355 19 101160 68
2003-06-17 07:33:17 51°10.38 2°41.89 8.6 354 19 101160 68
2003-06-17 07:33:25 51°10.37 2°41.84 8.4 355 19 101160 67
2003-06-17 07:33:29 51°10.36 2°41.82 8.3 354 19 101160 67
2003-06-17 07:33:33 51°10.36 2°41.8 8.4 353 19 101160 67
2003-06-17 07:33:37 51°10.35 2°41.77 8.2 353 19 101160 67
2003-06-17 07:33:45 51°10.34 2°41.72 7.9 353 19 101160 68
2003-06-17 07:33:49 51°10.33 2°41.7 7.5 355 19 101160 68
2003-06-17 07:33:53 51°10.33 2°41.67 7.8 354 19 101160 67
2003-06-17 07:33:59 51°10.32 2°41.64 7.7 354 19 101160 67
2003-06-17 07:34:05 51°10.31 2°41.6 7.7 350 19 101150 67
2003-06-17 07:34:09 51°10.3 2°41.58 7.4 350 19 101150 67
2003-06-17 07:34:13 51°10.3 2°41.55 8 350 19 101160 68
2003-06-17 07:34:17 51°10.29 2°41.53 7.7 352 19 101160 68
2003-06-17 07:34:25 51°10.28 2°41.48 7.4 354 19 101160 68
2003-06-17 07:34:29 51°10.27 2°41.46 7.4 349 19 101160 68
2003-06-17 07:34:33 51°10.27 2°41.43 7.3 353 19 101160 67
2003-06-17 07:34:37 51°10.26 2°41.41 7.8 349 19 101160 67
2003-06-17 07:34:45 51°10.25 2°41.36 7.8 351 19 101150 67
2003-06-17 07:34:49 51°10.24 2°41.34 7.4 354 19 101150 67
2003-06-17 07:34:53 51°10.23 2°41.31 7.2 352 19 101160 67
2003-06-17 07:34:59 51°10.22 2°41.28 7.7 353 19 101160 67
2003-06-17 07:35:05 51°10.21 2°41.24 7.7 353 19 101150 67
2003-06-17 07:35:09 51°10.21 2°41.22 8.4 354 19 101150 67
2003-06-17 07:35:13 51°10.2 2°41.19 8 352 19 101160 68
2003-06-17 07:35:19 51°10.19 2°41.16 7.9 351 19 101160 68
2003-06-17 07:35:25 51°10.18 2°41.12 7.1 351 19 101160 68
2003-06-17 07:35:29 51°10.18 2°41.1 7.6 351 19 101160 68
2003-06-17 07:35:33 51°10.17 2°41.07 7.6 348 19 101160 68
2003-06-17 07:35:39 51°10.16 2°41.03 7.9 345 19 101160 68
2003-06-17 07:35:45 51°10.15 2°41 7.3 345 19 101150 67
2003-06-17 07:35:49 51°10.15 2°40.97 7.5 345 19 101150 67
2003-06-17 07:35:53 51°10.14 2°40.95 7.6 347 18.9 101150 67
2003-06-17 07:35:59 51°10.13 2°40.91 8.3 349 18.9 101150 67
2003-06-17 07:36:05 51°10.12 2°40.88 8.8 352 18.9 101150 67
2003-06-17 07:36:09 51°10.11 2°40.85 8.6 346 18.9 101150 67
2003-06-17 07:36:15 51°10.1 2°40.82 8.5 346 18.9 101150 68
2003-06-17 07:36:19 51°10.1 2°40.79 8.6 343 18.9 101150 68
2003-06-17 07:36:25 51°10.09 2°40.76 7.9 344 18.9 101160 68
2003-06-17 07:36:29 51°10.08 2°40.73 8.3 349 18.9 101160 68
2003-06-17 07:36:33 51°10.08 2°40.71 8.4 348 19 101150 68
2003-06-17 07:36:37 51°10.07 2°40.68 8.1 347 19 101150 68
2003-06-17 07:36:45 51°10.06 2°40.64 8.2 350 18.9 101150 68
2003-06-17 07:36:49 51°10.05 2°40.61 8.5 347 18.9 101150 68
2003-06-17 07:36:53 51°10.05 2°40.59 8.5 348 18.9 101160 68
2003-06-17 07:36:57 51°10.04 2°40.56 8.3 349 18.9 101160 68
2003-06-17 07:37:05 51°10.03 2°40.51 8.7 346 18.9 101160 68
2003-06-17 07:37:09 51°10.02 2°40.49 8.5 346 18.9 101160 68
2003-06-17 07:37:13 51°10.01 2°40.47 8.8 344 19 101160 68
2003-06-17 07:37:17 51°10.01 2°40.44 9.1 347 19 101160 68
2003-06-17 07:37:25 51°9.99 2°40.39 8.9 344 18.9 101150 68
2003-06-17 07:37:29 51°9.99 2°40.37 8.5 346 18.9 101150 68
2003-06-17 07:37:33 51°9.98 2°40.35 8.5 346 18.9 101150 69
2003-06-17 07:37:39 51°9.97 2°40.31 8.3 347 18.9 101150 69
2003-06-17 07:37:45 51°9.96 2°40.27 8.8 343 18.9 101150 68
2003-06-17 07:37:49 51°9.96 2°40.25 8.4 344 18.9 101150 68
2003-06-17 07:37:53 51°9.95 2°40.23 8.3 343 18.9 101150 68
2003-06-17 07:37:57 51°9.95 2°40.2 8 344 18.9 101150 68
2003-06-17 07:38:05 51°9.93 2°40.15 8.4 344 18.9 101150 68
2003-06-17 07:38:09 51°9.93 2°40.13 8.3 344 18.9 101150 68
2003-06-17 07:38:13 51°9.92 2°40.1 8.7 344 18.9 101150 68
2003-06-17 07:38:17 51°9.91 2°40.08 8 341 18.9 101150 68
2003-06-17 07:38:25 51°9.9 2°40.03 8.1 342 18.9 101160 67
2003-06-17 07:38:29 51°9.89 2°40.01 8 340 18.9 101160 67
2003-06-17 07:38:33 51°9.89 2°39.98 7.8 345 18.9 101150 68
2003-06-17 07:38:39 51°9.88 2°39.95 8.1 346 18.9 101150 68
2003-06-17 07:38:45 51°9.87 2°39.91 8.1 343 18.9 101150 68
2003-06-17 07:38:49 51°9.86 2°39.89 8.3 342 18.9 101150 68
2003-06-17 07:38:53 51°9.86 2°39.86 8.5 341 18.9 101150 68
2003-06-17 07:38:59 51°9.85 2°39.83 8.4 340 18.9 101150 68
2003-06-17 07:39:05 51°9.84 2°39.79 8.2 339 18.8 101160 68
2003-06-17 07:39:09 51°9.83 2°39.77 8.2 339 18.8 101160 68
2003-06-17 07:39:13 51°9.83 2°39.74 8.3 340 18.8 101150 68
2003-06-17 07:39:17 51°9.82 2°39.72 8.5 343 18.8 101150 68
2003-06-17 07:39:25 51°9.81 2°39.67 8.5 343 18.8 101150 69
2003-06-17 07:39:29 51°9.8 2°39.65 8.2 344 18.8 101150 69
2003-06-17 07:39:33 51°9.79 2°39.62 7.9 345 18.8 101150 68
2003-06-17 07:39:37 51°9.79 2°39.6 7.8 343 18.8 101150 68
2003-06-17 07:39:45 51°9.78 2°39.55 7.9 342 18.8 101150 69
2003-06-17 07:39:49 51°9.77 2°39.52 7.9 344 18.8 101150 69
2003-06-17 07:39:53 51°9.76 2°39.5 8 342 18.8 101150 69
2003-06-17 07:39:57 51°9.76 2°39.48 7.7 346 18.8 101150 69
2003-06-17 07:40:05 51°9.75 2°39.43 7.4 344 18.8 101150 69
2003-06-17 07:40:09 51°9.74 2°39.4 7.9 345 18.8 101150 69
2003-06-17 07:40:13 51°9.73 2°39.38 8 343 18.8 101150 69
2003-06-17 07:40:17 51°9.73 2°39.35 7.9 346 18.8 101150 69
2003-06-17 07:40:25 51°9.72 2°39.31 7.9 345 18.8 101150 69
2003-06-17 07:40:29 51°9.71 2°39.28 7.8 345 18.8 101150 69
2003-06-17 07:40:33 51°9.7 2°39.26 7.8 346 18.8 101150 68
2003-06-17 07:40:39 51°9.69 2°39.22 8 346 18.8 101150 68
2003-06-17 07:40:45 51°9.68 2°39.19 8 345 18.8 101150 68
2003-06-17 07:40:49 51°9.68 2°39.16 8.2 345 18.8 101150 68
2003-06-17 07:40:53 51°9.67 2°39.14 8.4 345 18.8 101160 69
2003-06-17 07:40:57 51°9.67 2°39.11 7.8 345 18.8 101160 69
2003-06-17 07:41:05 51°9.65 2°39.06 8 346 18.8 101150 69
2003-06-17 07:41:09 51°9.65 2°39.04 7.5 352 18.8 101150 69
2003-06-17 07:41:13 51°9.64 2°39.01 7.9 350 18.8 101150 69
2003-06-17 07:41:17 51°9.64 2°38.99 7.4 350 18.8 101150 69
2003-06-17 07:41:25 51°9.62 2°38.94 7.7 347 18.7 101150 68
2003-06-17 07:41:29 51°9.62 2°38.92 7.6 349 18.7 101150 68
2003-06-17 07:41:33 51°9.61 2°38.89 7.6 346 18.8 101150 69
2003-06-17 07:41:39 51°9.6 2°38.86 7.5 350 18.8 101150 69
2003-06-17 07:41:45 51°9.59 2°38.82 8.4 348 18.7 101160 69
2003-06-17 07:41:49 51°9.58 2°38.8 7.8 349 18.7 101160 69
2003-06-17 07:41:53 51°9.58 2°38.77 8.4 345 18.7 101150 69
2003-06-17 07:41:59 51°9.57 2°38.74 8.3 346 18.7 101150 69
2003-06-17 07:42:05 51°9.56 2°38.7 7.5 344 18.8 101150 69
2003-06-17 07:42:09 51°9.55 2°38.68 7.5 346 18.8 101150 69
2003-06-17 07:42:13 51°9.55 2°38.65 7.3 345 18.8 101150 69
2003-06-17 07:42:17 51°9.54 2°38.63 7.5 346 18.8 101150 69
2003-06-17 07:42:25 51°9.53 2°38.58 7.4 345 18.8 101160 69
2003-06-17 07:42:29 51°9.53 2°38.56 7.6 348 18.8 101160 69
2003-06-17 07:42:33 51°9.52 2°38.53 7.4 346 18.8 101150 69
2003-06-17 07:42:37 51°9.51 2°38.51 7.1 348 18.8 101150 69
2003-06-17 07:42:45 51°9.5 2°38.47 7.1 345 18.8 101150 70
2003-06-17 07:42:49 51°9.5 2°38.45 7.4 350 18.8 101150 70
2003-06-17 07:42:53 51°9.49 2°38.42 7.5 348 18.7 101150 70
2003-06-17 07:42:57 51°9.48 2°38.4 7.3 349 18.7 101150 70
2003-06-17 07:43:05 51°9.47 2°38.36 7.5 349 18.8 101150 70
2003-06-17 07:43:09 51°9.47 2°38.33 7.4 348 18.8 101150 70
2003-06-17 07:43:13 51°9.46 2°38.31 7.3 347 18.8 101160 70
2003-06-17 07:43:19 51°9.46 2°38.28 7 345 18.8 101160 70
2003-06-17 07:43:25 51°9.45 2°38.24 7.1 345 18.8 101160 70
2003-06-17 07:43:29 51°9.45 2°38.22 6.7 346 18.8 101160 70
2003-06-17 07:43:33 51°9.44 2°38.2 7.1 346 18.7 101160 70
2003-06-17 07:43:37 51°9.44 2°38.18 7.1 346 18.7 101160 70
2003-06-17 07:43:45 51°9.43 2°38.14 6.6 343 18.7 101150 69
2003-06-17 07:43:49 51°9.43 2°38.11 6.8 342 18.7 101150 69
2003-06-17 07:43:53 51°9.42 2°38.09 6.4 344 18.7 101160 70
2003-06-17 07:43:57 51°9.42 2°38.07 6.5 344 18.7 101160 70
2003-06-17 07:44:05 51°9.41 2°38.03 6.6 348 18.7 101150 69
2003-06-17 07:44:09 51°9.41 2°38.01 6.3 346 18.7 101150 69
2003-06-17 07:44:13 51°9.4 2°37.99 6.2 348 18.7 101160 69
2003-06-17 07:44:19 51°9.4 2°37.96 6 345 18.7 101160 69
2003-06-17 07:44:25 51°9.39 2°37.93 6.3 348 18.7 101160 70
2003-06-17 07:44:29 51°9.39 2°37.91 6.2 350 18.7 101160 70
2003-06-17 07:44:33 51°9.38 2°37.89 6.1 349 18.7 101160 70
2003-06-17 07:44:39 51°9.38 2°37.86 6.4 344 18.7 101160 70
2003-06-17 07:44:45 51°9.37 2°37.83 6.1 347 18.7 101160 69
2003-06-17 07:44:49 51°9.37 2°37.81 6.4 347 18.7 101160 69
2003-06-17 07:44:53 51°9.37 2°37.79 6.6 350 18.7 101160 70
2003-06-17 07:44:57 51°9.36 2°37.77 6.2 343 18.7 101160 70
2003-06-17 07:45:05 51°9.35 2°37.73 5.8 346 18.7 101160 70
2003-06-17 07:45:09 51°9.35 2°37.71 5.7 350 18.7 101160 70
2003-06-17 07:45:13 51°9.35 2°37.7 5.9 350 18.7 101160 70
2003-06-17 07:45:17 51°9.34 2°37.68 5.3 353 18.7 101160 70
2003-06-17 07:45:25 51°9.33 2°37.65 5.1 349 18.7 101160 70
2003-06-17 07:45:29 51°9.33 2°37.63 4.9 351 18.7 101160 70
2003-06-17 07:45:33 51°9.33 2°37.62 5.2 351 18.7 101160 70
2003-06-17 07:45:37 51°9.32 2°37.6 4.8 352 18.7 101160 70
2003-06-17 07:45:45 51°9.32 2°37.57 4.7 345 18.7 101160 70
2003-06-17 07:45:49 51°9.31 2°37.56 4.5 344 18.7 101160 70
2003-06-17 07:45:53 51°9.31 2°37.55 4 342 18.7 101160 70
2003-06-17 07:45:57 51°9.31 2°37.53 4.2 342 18.7 101160 70
2003-06-17 07:46:05 51°9.3 2°37.51 3.9 336 18.7 101170 70
2003-06-17 07:46:09 51°9.3 2°37.5 3.8 337 18.7 101170 70
2003-06-17 07:46:13 51°9.3 2°37.49 3.8 335 18.7 101170 71
2003-06-17 07:46:19 51°9.29 2°37.47 3.9 336 18.7 101170 71
2003-06-17 07:46:25 51°9.29 2°37.45 3.9 338 18.7 101160 70
2003-06-17 07:46:29 51°9.29 2°37.44 3.8 335 18.7 101160 70
2003-06-17 07:46:33 51°9.29 2°37.43 4 332 18.7 101170 70
2003-06-17 07:46:37 51°9.29 2°37.42 3.7 332 18.7 101170 70
2003-06-17 07:46:45 51°9.28 2°37.4 3.8 332 18.7 101170 70
2003-06-17 07:46:49 51°9.28 2°37.39 3.6 331 18.7 101170 70
2003-06-17 07:46:53 51°9.28 2°37.38 3.6 331 18.7 101170 71
2003-06-17 07:46:57 51°9.28 2°37.37 3.4 334 18.7 101170 71
2003-06-17 07:47:05 51°9.27 2°37.36 3.9 333 18.7 101170 70
2003-06-17 07:47:09 51°9.27 2°37.35 3.8 341 18.7 101170 70
2003-06-17 07:47:13 51°9.27 2°37.34 3.5 343 18.7 101170 70
2003-06-17 07:47:19 51°9.26 2°37.33 3.5 336 18.7 101170 70
2003-06-17 07:47:25 51°9.26 2°37.31 3.2 342 18.7 101170 70
2003-06-17 07:47:29 51°9.26 2°37.31 3.3 343 18.7 101170 70
2003-06-17 07:47:33 51°9.26 2°37.3 3.3 348 18.7 101170 70
2003-06-17 07:47:39 51°9.25 2°37.29 3.5 347 18.7 101170 70
2003-06-17 07:47:45 51°9.25 2°37.28 3.4 350 18.7 101170 70
2003-06-17 07:47:49 51°9.25 2°37.27 3.4 350 18.7 101170 70
2003-06-17 07:47:53 51°9.24 2°37.27 3.2 350 18.7 101170 70
2003-06-17 07:47:57 51°9.24 2°37.26 3.3 351 18.7 101170 70
2003-06-17 07:48:05 51°9.24 2°37.25 3.2 352 18.7 101170 70
2003-06-17 07:48:09 51°9.23 2°37.25 3.3 355 18.7 101170 70
2003-06-17 07:48:13 51°9.23 2°37.24 3.1 356 18.7 101170 70
2003-06-17 07:48:17 51°9.23 2°37.24 3.3 356 18.7 101170 70
2003-06-17 07:48:25 51°9.22 2°37.23 3.4 358 18.7 101170 70
2003-06-17 07:48:29 51°9.22 2°37.22 3.2 357 18.7 101170 70
2003-06-17 07:48:33 51°9.22 2°37.22 3 356 18.7 101170 70
2003-06-17 07:48:37 51°9.21 2°37.22 3 1 18.7 101170 70
2003-06-17 07:48:45 51°9.21 2°37.21 2.9 1 18.7 101170 71
2003-06-17 07:48:49 51°9.2 2°37.21 2.8 5 18.7 101170 71
2003-06-17 07:48:53 51°9.2 2°37.2 2.9 7 18.7 101170 70
2003-06-17 07:48:57 51°9.2 2°37.2 3 11 18.7 101170 70
2003-06-17 07:49:05 51°9.19 2°37.2 3.2 12 18.7 101170 70
2003-06-17 07:49:09 51°9.19 2°37.19 3 15 18.7 101170 70
2003-06-17 07:49:13 51°9.19 2°37.19 2.9 13 18.7 101170 70
2003-06-17 07:49:19 51°9.18 2°37.19 2.8 15 18.7 101170 70
2003-06-17 07:49:25 51°9.18 2°37.19 2.7 16 18.7 101170 70
2003-06-17 07:49:29 51°9.18 2°37.18 2.8 20 18.7 101170 70
2003-06-17 07:49:33 51°9.17 2°37.18 2.8 19 18.6 101170 70
2003-06-17 07:49:37 51°9.17 2°37.18 2.6 23 18.6 101170 70
2003-06-17 07:49:45 51°9.17 2°37.18 2.5 20 18.6 101170 70
2003-06-17 07:49:49 51°9.16 2°37.18 2.6 22 18.6 101170 70
2003-06-17 07:49:53 51°9.16 2°37.17 2.5 24 18.6 101170 70
2003-06-17 07:49:57 51°9.16 2°37.17 2.4 25 18.6 101170 70
2003-06-17 07:50:05 51°9.16 2°37.17 2.5 27 18.6 101170 71
2003-06-17 07:50:09 51°9.15 2°37.17 2.4 30 18.6 101170 71
2003-06-17 07:50:13 51°9.15 2°37.17 2.3 31 18.6 101170 71
2003-06-17 07:50:19 51°9.15 2°37.17 2.1 32 18.6 101170 71
2003-06-17 07:50:25 51°9.14 2°37.17 2.1 33 18.6 101170 71
2003-06-17 07:50:29 51°9.14 2°37.17 2.2 34 18.6 101170 71
2003-06-17 07:50:33 51°9.14 2°37.17 2.2 35 18.6 101170 71
2003-06-17 07:50:39 51°9.14 2°37.17 2.2 38 18.6 101170 71
2003-06-17 07:50:45 51°9.13 2°37.17 2.2 41 18.6 101170 71
2003-06-17 07:50:49 51°9.13 2°37.17 2.3 42 18.6 101170 71
2003-06-17 07:50:53 51°9.13 2°37.17 2.1 43 18.6 101170 71
2003-06-17 07:50:57 51°9.13 2°37.17 2.2 49 18.6 101170 71
2003-06-17 07:51:05 51°9.13 2°37.17 2 49 18.6 101170 71
2003-06-17 07:51:09 51°9.12 2°37.17 2.1 47 18.6 101170 71
2003-06-17 07:51:13 51°9.12 2°37.17 2.2 50 18.6 101170 71
2003-06-17 07:51:17 51°9.12 2°37.17 2.1 50 18.6 101170 71
2003-06-17 07:51:25 51°9.12 2°37.17 2 49 18.6 101170 71
2003-06-17 07:51:29 51°9.12 2°37.17 2 53 18.6 101170 71
2003-06-17 07:51:33 51°9.12 2°37.17 1.9 53 18.5 101170 71
2003-06-17 07:51:37 51°9.12 2°37.17 1.9 53 18.5 101170 71
2003-06-17 07:51:45 51°9.11 2°37.17 1.9 54 18.5 101170 71
2003-06-17 07:51:49 51°9.11 2°37.17 1.8 53 18.5 101170 71
2003-06-17 07:51:53 51°9.11 2°37.17 1.9 55 18.5 101170 72
2003-06-17 07:51:59 51°9.11 2°37.17 1.9 57 18.5 101170 72
2003-06-17 07:52:05 51°9.11 2°37.18 1.8 60 18.5 101160 72
2003-06-17 07:52:09 51°9.11 2°37.18 1.7 64 18.5 101160 72
2003-06-17 07:52:13 51°9.11 2°37.18 1.7 67 18.5 101160 72
2003-06-17 07:52:17 51°9.11 2°37.18 1.8 66 18.5 101160 72
2003-06-17 07:52:25 51°9.11 2°37.18 1.7 68 18.5 101170 72
2003-06-17 07:52:29 51°9.11 2°37.18 1.3 75 18.5 101170 72
2003-06-17 07:52:35 51°9.11 2°37.18 1.5 75 18.5 101160 72
2003-06-17 07:52:37 51°9.11 2°37.18 1.2 75 18.5 101160 72
2003-06-17 07:52:45 51°9.1 2°37.18 1.3 75 18.5 101160 72
2003-06-17 07:52:49 51°9.1 2°37.18 1.4 74 18.5 101160 72
2003-06-17 07:52:53 51°9.1 2°37.18 1.5 75 18.5 101160 72
2003-06-17 07:52:59 51°9.1 2°37.18 1.4 78 18.5 101160 72
2003-06-17 07:53:05 51°9.1 2°37.19 1.4 79 18.4 101160 72
2003-06-17 07:53:09 51°9.1 2°37.19 1.4 79 18.4 101160 72
2003-06-17 07:53:13 51°9.1 2°37.19 1.3 79 18.5 101160 72
2003-06-17 07:53:19 51°9.11 2°37.19 1.2 77 18.5 101160 72
2003-06-17 07:53:25 51°9.11 2°37.19 1.4 72 18.4 101160 72
2003-06-17 07:53:29 51°9.11 2°37.19 1.2 69 18.4 101160 72
2003-06-17 07:53:33 51°9.11 2°37.19 1.2 70 18.4 101160 72
2003-06-17 07:53:39 51°9.11 2°37.19 1.3 72 18.4 101160 72
2003-06-17 07:53:45 51°9.11 2°37.19 1.4 72 18.4 101160 72
2003-06-17 07:53:49 51°9.11 2°37.19 1.4 73 18.4 101160 72
2003-06-17 07:53:53 51°9.11 2°37.19 1.4 73 18.4 101160 73
2003-06-17 07:53:59 51°9.11 2°37.19 1.2 75 18.4 101160 73
2003-06-17 07:54:05 51°9.11 2°37.19 1.7 79 18.4 101160 73
2003-06-17 07:54:09 51°9.11 2°37.19 1.8 79 18.4 101160 73
2003-06-17 07:54:15 51°9.11 2°37.19 1.7 80 18.4 101160 73
2003-06-17 07:54:19 51°9.11 2°37.19 1.5 80 18.4 101160 73
2003-06-17 07:54:25 51°9.12 2°37.2 1.6 80 18.4 101160 73
2003-06-17 07:54:29 51°9.12 2°37.2 1.7 79 18.4 101160 73
2003-06-17 07:54:33 51°9.12 2°37.2 1.7 78 18.4 101160 72
2003-06-17 07:54:37 51°9.12 2°37.2 1.5 75 18.4 101160 72
2003-06-17 07:54:45 51°9.12 2°37.2 1.6 75 18.4 101160 73
2003-06-17 07:54:49 51°9.12 2°37.2 1.6 69 18.4 101160 73
2003-06-17 07:54:53 51°9.12 2°37.2 1.6 69 18.4 101150 72
2003-06-17 07:54:57 51°9.12 2°37.2 1.8 66 18.4 101150 72
2003-06-17 07:55:05 51°9.12 2°37.2 1.8 61 18.4 101160 72
2003-06-17 07:55:09 51°9.12 2°37.2 1.9 59 18.4 101160 72
2003-06-17 07:55:13 51°9.12 2°37.2 1.8 60 18.4 101160 72
2003-06-17 07:55:17 51°9.12 2°37.21 1.9 58 18.4 101160 72
2003-06-17 07:55:25 51°9.12 2°37.21 2 58 18.4 101150 72
2003-06-17 07:55:29 51°9.13 2°37.21 2.1 55 18.4 101150 72
2003-06-17 07:55:33 51°9.13 2°37.21 2.1 56 18.4 101160 73
2003-06-17 07:55:39 51°9.13 2°37.21 2.1 59 18.4 101160 73
2003-06-17 07:55:45 51°9.13 2°37.21 2 57 18.4 101160 72
2003-06-17 07:55:49 51°9.13 2°37.22 2 55 18.4 101160 72
2003-06-17 07:55:53 51°9.13 2°37.22 2 54 18.3 101160 72
2003-06-17 07:55:57 51°9.13 2°37.22 2.1 54 18.3 101160 72
2003-06-17 07:56:05 51°9.13 2°37.22 2.1 54 18.3 101160 72
2003-06-17 07:56:09 51°9.13 2°37.22 1.9 60 18.3 101160 72
2003-06-17 07:56:13 51°9.13 2°37.22 2 60 18.3 101160 71
2003-06-17 07:56:17 51°9.13 2°37.23 1.9 55 18.3 101160 71
2003-06-17 07:56:25 51°9.13 2°37.23 2 52 18.4 101160 72
2003-06-17 07:56:29 51°9.13 2°37.23 2 56 18.4 101160 72
2003-06-17 07:56:33 51°9.13 2°37.23 2.1 57 18.3 101160 72
2003-06-17 07:56:39 51°9.13 2°37.24 2 56 18.3 101160 72
2003-06-17 07:56:45 51°9.13 2°37.24 2 59 18.3 101160 72
2003-06-17 07:56:49 51°9.13 2°37.24 2.1 56 18.3 101160 72
2003-06-17 07:56:53 51°9.13 2°37.24 2.1 57 18.3 101160 72
2003-06-17 07:56:59 51°9.13 2°37.24 2.1 57 18.3 101160 72
2003-06-17 07:57:05 51°9.13 2°37.25 2.1 56 18.3 101160 72
2003-06-17 07:57:09 51°9.13 2°37.25 2 53 18.3 101160 72
2003-06-17 07:57:13 51°9.13 2°37.25 2 54 18.3 101160 71
2003-06-17 07:57:17 51°9.13 2°37.25 2.1 54 18.3 101160 71
2003-06-17 07:57:25 51°9.13 2°37.26 2.1 55 18.3 101160 72
2003-06-17 07:57:29 51°9.13 2°37.26 2.2 54 18.3 101160 72
2003-06-17 07:57:33 51°9.13 2°37.26 2.2 54 18.3 101160 71
2003-06-17 07:57:37 51°9.13 2°37.26 2.1 54 18.3 101160 71
2003-06-17 07:57:45 51°9.13 2°37.26 2.2 56 18.3 101160 71
2003-06-17 07:57:49 51°9.13 2°37.27 2.1 56 18.3 101160 71
2003-06-17 07:57:53 51°9.13 2°37.27 2.1 55 18.3 101160 71
2003-06-17 07:57:57 51°9.13 2°37.27 2.1 59 18.3 101160 71
2003-06-17 07:58:05 51°9.12 2°37.27 2.1 59 18.3 101160 71
2003-06-17 07:58:09 51°9.12 2°37.27 2.2 61 18.3 101160 71
2003-06-17 07:58:13 51°9.12 2°37.28 2.2 63 18.3 101160 72
2003-06-17 07:58:19 51°9.12 2°37.28 2.2 65 18.3 101160 72
2003-06-17 07:58:25 51°9.12 2°37.28 2.1 69 18.3 101160 72
2003-06-17 07:58:29 51°9.12 2°37.28 2.2 75 18.3 101160 72
2003-06-17 07:58:33 51°9.12 2°37.28 1.9 76 18.3 101160 72
2003-06-17 07:58:37 51°9.12 2°37.29 2.1 79 18.3 101160 72
2003-06-17 07:58:45 51°9.12 2°37.29 2.2 80 18.3 101170 72
2003-06-17 07:58:49 51°9.12 2°37.29 2.2 84 18.3 101170 72
2003-06-17 07:58:55 51°9.12 2°37.29 2.2 87 18.3 101170 72
2003-06-17 07:58:57 51°9.12 2°37.29 2.1 90 18.3 101170 72
2003-06-17 07:59:05 51°9.12 2°37.3 2.1 92 18.3 101160 72
2003-06-17 07:59:09 51°9.12 2°37.3 2 92 18.3 101160 72
2003-06-17 07:59:13 51°9.12 2°37.3 2 93 18.3 101170 72
2003-06-17 07:59:19 51°9.12 2°37.3 2.1 95 18.3 101170 72
2003-06-17 07:59:25 51°9.12 2°37.3 1.9 102 18.3 101170 72
2003-06-17 07:59:29 51°9.12 2°37.3 2 105 18.3 101170 72
2003-06-17 07:59:33 51°9.12 2°37.3 1.8 106 18.3 101170 72
2003-06-17 07:59:39 51°9.12 2°37.31 1.9 107 18.3 101170 72
2003-06-17 07:59:45 51°9.12 2°37.31 1.9 106 18.3 101170 72
2003-06-17 07:59:49 51°9.12 2°37.31 2 110 18.3 101170 72
2003-06-17 07:59:53 51°9.12 2°37.31 1.9 110 18.3 101170 72
2003-06-17 07:59:59 51°9.13 2°37.31 2 109 18.3 101170 72
2003-06-17 08:00:05 51°9.13 2°37.31 1.8 109 18.3 101170 72
2003-06-17 08:00:09 51°9.13 2°37.31 2 110 18.3 101170 72
2003-06-17 08:00:13 51°9.13 2°37.31 2.1 110 18.3 101170 72
2003-06-17 08:00:19 51°9.13 2°37.32 1.9 112 18.3 101170 72
2003-06-17 08:00:25 51°9.13 2°37.32 1.9 114 18.4 101170 72
2003-06-17 08:00:29 51°9.13 2°37.32 1.8 119 18.4 101170 72
2003-06-17 08:00:35 51°9.13 2°37.32 2 117 18.4 101170 72
2003-06-17 08:00:39 51°9.13 2°37.32 1.9 117 18.4 101170 72
2003-06-17 08:00:45 51°9.13 2°37.32 1.8 117 18.4 101180 73
2003-06-17 08:00:49 51°9.13 2°37.32 1.9 119 18.4 101180 73
2003-06-17 08:00:53 51°9.13 2°37.32 1.8 118 18.4 101170 73
2003-06-17 08:00:57 51°9.13 2°37.33 1.8 119 18.4 101170 73
2003-06-17 08:01:05 51°9.13 2°37.33 1.9 119 18.4 101170 73
2003-06-17 08:01:09 51°9.13 2°37.33 1.8 117 18.4 101170 73
2003-06-17 08:01:13 51°9.13 2°37.33 1.9 117 18.4 101170 73
2003-06-17 08:01:17 51°9.13 2°37.33 1.8 117 18.4 101170 73
2003-06-17 08:01:25 51°9.13 2°37.33 1.8 118 18.4 101170 73